sat.trackr.live / text

‹ back to catalog

STARLINK-36563

NORAD 67550 · 2026-014U

PAYLOAD ACTIVE UNKNOWN

§ Identity

Operator
Country
US
Launch date
2026-01-22
Launch site
AFWTR
Launch vehicle
Mass (kg)
RCS (m²)

Purposes: comms

External: N2YO · Heavens-Above · Gunter

§ Orbital elements

Epoch: 2026-05-25T03:07:40.276992Z

Period
93.91 min
Inclination
97.2874°
Eccentricity
0.0001162
Mean motion
15.33463436 rev/d
Perigee alt
464.7 km
Apogee alt
466.3 km
Semi-major
6,843.6 km
B*
6.3204e-4
RAAN
32.2604°
Arg perigee
100.2422°
Mean anomaly
259.8952°
Rev number
2,050

§ Raw data

STARLINK-365631 67550U 26014U   26145.13032728  .00020396  00000+0  63204-3 0  99972 67550  97.2874  32.2604 0001162 100.2422 259.8952 15.33463436 20505

JSON: /api/v1/satellites/67550 · /tle

For live sub-satellite position, see the globe view (requires WebGL).

§ Visibility from observer

Set your observer location to see the next 7 days of passes ≥ 10°. The values pass through the URL so the page stays shareable.

No JS? Fill the form by hand. The geolocation button needs JavaScript.